User: anonymous   Login
Location: Unspecified
(0.0000°N, 0.0000°E)
Time: 05:13:55
(UTC+00:00)
Language:

Kosmos-1634 - Orbit

View from above orbital plane
View from above orbital plane
View from above satellite
View from above satellite

Ground track
Ground track

The orbit data is extracted from the following two-line orbital elements,

1 15597U 85022A   18202.52992306 +.00000052 +00000-0 +38340-4 0  9992
2 15597 082.9387 196.2224 0035763 171.4489 307.9162 13.75068016673360
Epoch (UTC): 21 July 2018 12:43:05
Eccentricity: 0.0035763
inclination: 82.9387°
perigee height: 955 km
apogee height: 1008 km
right ascension of ascending node: 196.2224°
argument of perigee: 171.4489°
revolutions per day: 13.75068016
mean anomaly at epoch: 307.9162°
orbit number at epoch: 67336

The dashed part of the orbit path shows where the satellite is in the earth's shadow,  

DLR